Hourly Weather Kozmoldak

Today, 25 October, Sunday

Time Temperature Precipitation Wind Pressure Humidity
00:00 +3°C° 0 mm 1 mps 720 mmHg 50%
01:00 +2°C° 0 mm 1 mps 719 mmHg 51%
02:00 +2°C° 0 mm 1 mps 719 mmHg 51%
03:00 +2°C° 0 mm 1 mps 719 mmHg 53%
04:00 +2°C° 0 mm 1 mps 719 mmHg 55%
05:00 +1°C° 0 mm 1 mps 719 mmHg 57%
06:00 +3°C° 0 mm 1 mps 720 mmHg 50%
07:00 +3°C° 0 mm 0 mps 720 mmHg 42%
08:00 +4°C° 0 mm 0 mps 720 mmHg 35%
09:00 +7°C° 0 mm 1 mps 721 mmHg 32%
10:00 +9°C° 0 mm 1 mps 721 mmHg 28%
11:00 +11°C° 0 mm 1 mps 721 mmHg 25%
12:00 +12°C° 0 mm 1 mps 721 mmHg 25%
13:00 +12°C° 0 mm 1 mps 720 mmHg 24%
14:00 +13°C° 0 mm 1 mps 720 mmHg 24%
15:00 +12°C° 0 mm 1 mps 720 mmHg 26%
16:00 +11°C° 0 mm 1 mps 720 mmHg 28%
17:00 +11°C° 0 mm 1 mps 719 mmHg 31%
18:00 +10°C° 0 mm 1 mps 719 mmHg 32%
19:00 +8°C° 0 mm 2 mps 719 mmHg 34%
20:00 +7°C° 0 mm 2 mps 719 mmHg 36%
21:00 +6°C° 0 mm 2 mps 719 mmHg 36%
22:00 +6°C° 0 mm 2 mps 718 mmHg 35%
23:00 +6°C° 0 mm 2 mps 718 mmHg 35%

Tomorrow, 26 October, Monday

Time Temperature Precipitation Wind Pressure Humidity
00:00 +6°C° 0 mm 2 mps 718 mmHg 34%
01:00 +5°C° 0 mm 2 mps 717 mmHg 33%
02:00 +5°C° 0 mm 2 mps 717 mmHg 32%
03:00 +5°C° 0 mm 2 mps 716 mmHg 31%
04:00 +5°C° 0 mm 2 mps 716 mmHg 31%
05:00 +7°C° 0 mm 1 mps 716 mmHg 31%
06:00 +7°C° 0 mm 1 mps 716 mmHg 30%
07:00 +8°C° 0 mm 1 mps 716 mmHg 29%
08:00 +9°C° 0 mm 1 mps 716 mmHg 29%
09:00 +12°C° 0 mm 2 mps 716 mmHg 26%
10:00 +14°C° 0 mm 2 mps 716 mmHg 24%
11:00 +16°C° 0 mm 3 mps 716 mmHg 21%
12:00 +16°C° 0 mm 3 mps 715 mmHg 22%
13:00 +17°C° 0 mm 4 mps 715 mmHg 22%
14:00 +18°C° 0 mm 4 mps 714 mmHg 22%
15:00 +17°C° 0 mm 4 mps 714 mmHg 24%
16:00 +15°C° 0 mm 4 mps 713 mmHg 25%
17:00 +14°C° 0 mm 4 mps 713 mmHg 27%
18:00 +13°C° 0 mm 4 mps 713 mmHg 28%
19:00 +13°C° 0 mm 4 mps 713 mmHg 30%
20:00 +12°C° 0 mm 4 mps 712 mmHg 31%
21:00 +12°C° 0 mm 4 mps 712 mmHg 31%
22:00 +11°C° 0 mm 4 mps 712 mmHg 31%
23:00 +11°C° 0 mm 4 mps 712 mmHg 31%

Day after tomorrow, 27 October, Tuesday

Time Temperature Precipitation Wind Pressure Humidity
00:00 +11°C° 0 mm 4 mps 712 mmHg 32%
01:00 +10°C° 0 mm 4 mps 711 mmHg 33%
02:00 +10°C° 0 mm 4 mps 711 mmHg 34%
03:00 +10°C° 0 mm 4 mps 711 mmHg 35%
04:00 +8°C° 0 mm 4 mps 711 mmHg 36%
05:00 +8°C° 0 mm 4 mps 710 mmHg 36%
06:00 +10°C° 0 mm 4 mps 710 mmHg 35%
07:00 +10°C° 0 mm 4 mps 710 mmHg 34%
08:00 +11°C° 0 mm 4 mps 710 mmHg 32%
09:00 +12°C° 0 mm 5 mps 710 mmHg 30%
10:00 +14°C° 0 mm 6 mps 710 mmHg 28%
11:00 +16°C° 0 mm 7 mps 710 mmHg 26%
12:00 +16°C° 0 mm 8 mps 710 mmHg 31%
13:00 +16°C° 0 mm 9 mps 710 mmHg 36%
14:00 +16°C° 0 mm 10 mps 710 mmHg 41%
15:00 +13°C° 0 mm 8 mps 710 mmHg 40%
16:00 +12°C° 0 mm 7 mps 710 mmHg 39%
17:00 +10°C° 0 mm 6 mps 710 mmHg 38%
18:00 +8°C° 0 mm 5 mps 711 mmHg 42%
19:00 +6°C° 0 mm 4 mps 711 mmHg 46%
20:00 +4°C° 0 mm 4 mps 712 mmHg 49%
21:00 +3°C° 0 mm 3 mps 712 mmHg 49%
22:00 +2°C° 0 mm 3 mps 712 mmHg 49%
23:00 +2°C° 0 mm 2 mps 713 mmHg 49%

28 October, Wednesday

Time Temperature Precipitation Wind Pressure Humidity
00:00 +1°C° 0 mm 2 mps 713 mmHg 50%
01:00 +1°C° 0 mm 2 mps 713 mmHg 50%
02:00 +1°C° 0 mm 1 mps 713 mmHg 50%
03:00 0°C° 0 mm 1 mps 713 mmHg 52%
04:00 0°C° 0 mm 1 mps 714 mmHg 54%
05:00 -1°C° 0 mm 1 mps 714 mmHg 56%
06:00 0°C° 0 mm 1 mps 714 mmHg 53%
07:00 +1°C° 0 mm 1 mps 715 mmHg 49%
08:00 +2°C° 0 mm 1 mps 715 mmHg 46%
09:00 +2°C° 0 mm 2 mps 716 mmHg 43%
10:00 +2°C° 0 mm 3 mps 716 mmHg 41%
11:00 +4°C° 0 mm 3 mps 717 mmHg 38%
12:00 +5°C° 0 mm 4 mps 717 mmHg 37%
13:00 +5°C° 0 mm 4 mps 717 mmHg 35%
14:00 +6°C° 0 mm 4 mps 717 mmHg 34%
15:00 +5°C° 0 mm 4 mps 717 mmHg 38%
16:00 +4°C° 0 mm 4 mps 718 mmHg 42%
17:00 +3°C° 0 mm 5 mps 718 mmHg 45%
18:00 +1°C° 0 mm 4 mps 718 mmHg 52%
19:00 +1°C° 0 mm 3 mps 718 mmHg 58%
20:00 0°C° 0 mm 3 mps 719 mmHg 65%
21:00 -1°C° 0 mm 3 mps 719 mmHg 69%
22:00 -1°C° 0 mm 3 mps 719 mmHg 73%
23:00 -2°C° 0 mm 3 mps 719 mmHg 77%

29 October, Thursday

Time Temperature Precipitation Wind Pressure Humidity
00:00 -4°C° 0 mm 3 mps 719 mmHg 77%
01:00 -4°C° 0 mm 3 mps 719 mmHg 78%
02:00 -4°C° 0 mm 3 mps 719 mmHg 79%
03:00 -5°C° 0 mm 3 mps 720 mmHg 79%
04:00 -5°C° 0 mm 3 mps 720 mmHg 80%
05:00 -6°C° 0 mm 3 mps 720 mmHg 80%
06:00 -6°C° 0 mm 3 mps 720 mmHg 81%
07:00 -6°C° 0 mm 3 mps 721 mmHg 81%
08:00 -6°C° 0 mm 3 mps 721 mmHg 81%
09:00 -5°C° 0 mm 3 mps 722 mmHg 72%
10:00 -3°C° 0 mm 2 mps 722 mmHg 64%
11:00 -2°C° 0 mm 2 mps 722 mmHg 55%
12:00 -1°C° 0 mm 2 mps 723 mmHg 51%
13:00 0°C° 0 mm 3 mps 723 mmHg 46%
14:00 0°C° 0 mm 3 mps 723 mmHg 41%
15:00 0°C° 0 mm 3 mps 723 mmHg 43%
16:00 -1°C° 0 mm 3 mps 723 mmHg 45%
17:00 -1°C° 0 mm 3 mps 723 mmHg 47%
18:00 -2°C° 0 mm 2 mps 724 mmHg 51%
19:00 -3°C° 0 mm 2 mps 724 mmHg 55%
20:00 -4°C° 0 mm 2 mps 725 mmHg 59%
21:00 -4°C° 0 mm 2 mps 725 mmHg 61%
22:00 -5°C° 0 mm 2 mps 725 mmHg 63%
23:00 -5°C° 0 mm 2 mps 725 mmHg 64%

30 October, Friday

Time Temperature Precipitation Wind Pressure Humidity
00:00 -5°C° 0 mm 2 mps 725 mmHg 67%
01:00 -5°C° 0 mm 2 mps 725 mmHg 69%
02:00 -6°C° 0 mm 2 mps 725 mmHg 72%
03:00 -6°C° 0 mm 2 mps 725 mmHg 72%
04:00 -6°C° 0 mm 2 mps 726 mmHg 73%
05:00 -6°C° 0 mm 2 mps 726 mmHg 74%
06:00 -6°C° 0 mm 2 mps 726 mmHg 70%
07:00 -5°C° 0 mm 2 mps 726 mmHg 66%
08:00 -4°C° 0 mm 2 mps 727 mmHg 62%
09:00 -2°C° 0 mm 2 mps 727 mmHg 56%
10:00 -1°C° 0 mm 2 mps 727 mmHg 49%
11:00 +2°C° 0 mm 2 mps 727 mmHg 43%
12:00 +2°C° 0 mm 3 mps 727 mmHg 40%
13:00 +3°C° 0 mm 3 mps 726 mmHg 38%
14:00 +4°C° 0 mm 3 mps 726 mmHg 35%
15:00 +3°C° 0 mm 3 mps 726 mmHg 38%
16:00 +2°C° 0 mm 3 mps 725 mmHg 40%
17:00 +1°C° 0 mm 3 mps 725 mmHg 43%
18:00 0°C° 0 mm 3 mps 725 mmHg 45%
19:00 0°C° 0 mm 3 mps 725 mmHg 48%
20:00 -1°C° 0 mm 3 mps 725 mmHg 50%
21:00 -1°C° 0 mm 3 mps 725 mmHg 50%
22:00 -1°C° 0 mm 3 mps 725 mmHg 50%
23:00 -2°C° 0 mm 4 mps 724 mmHg 50%
Show more